#timestamp,LO_Frequency,Hit,StdDev 
1585220415.0,286047002.3,N
1585220415.9,286047002.3,N
1585220435.8,286047000.3,N
1585220455.6,286047000.5,N
1585220475.5,286047001.0,N
1585220495.3,286047001.1,N
1585220515.1,286046998.4,N
1585220535.9,286046999.5,N
1585220555.7,286046997.0,N
1585220575.5,286047000.8,N
1585220595.4,286046998.7,N
1585220615.2,286046998.9,N
1585220635.1,286046998.4,N
1585220636.0,286046998.4,N
1585220655.8,286046996.5,N
1585220675.6,286046999.3,N
1585220695.5,286046996.5,N
1585220715.3,286046997.0,N
1585220735.2,286046997.2,N
1585220755.9,286046997.3,N
1585220775.7,286046995.1,N
1585220795.6,286046997.8,N
1585220815.4,286046995.3,N
1585220835.2,286046995.9,N
1585220855.1,286046995.0,N
1585220856.0,286046995.0,N
1585220875.8,286046996.4,N
1585220895.7,286046996.4,N
1585220915.5,286046995.8,N
1585220935.3,286046994.4,N
1585220955.2,286046991.7,Y
1585220975.0,286046995.2,P
1585220975.9,286046995.2,P
1585220995.8,286046997.9,N
1585221015.6,286046997.7,N
1585221035.4,286046996.7,N
1585221055.3,286046997.7,N
1585221075.1,286046997.3,N
1585221095.9,286046994.9,Y
1585221115.7,286046998.9,P
1585221135.5,286046998.2,N
1585221155.4,286046996.5,P
1585221175.2,286046997.3,N
1585221195.0,286046999.5,N
1585221196.0,286046999.5,N
1585221215.8,286046999.2,N
1585221235.6,286047001.2,N
1585221255.5,286046998.2,N
1585221275.3,286047000.9,N
1585221295.1,286047000.6,N
1585221315.9,286047000.9,N
1585221335.7,286047001.0,N
1585221355.6,286046998.3,N
1585221375.4,286046998.6,N
1585221395.2,286047001.0,N
1585221415.1,286046998.5,N
1585221416.0,286046998.5,N
1585221435.8,286046998.2,N
1585221455.7,286047000.5,N
1585221475.5,286047000.1,N
1585221495.3,286047000.1,N
1585221515.2,286047001.1,N
1585221535.0,286047000.8,N
1585221535.9,286047000.8,N
1585221555.7,286046998.1,N
1585221575.6,286046999.9,N
1585221595.4,286047000.1,N
1585221615.3,286047001.9,N
1585221635.1,286047002.5,N
1585221636.0,286047002.5,N
1585221655.8,286047002.5,N
1585221675.7,286046999.8,N
1585221695.5,286047000.7,N
1585221715.4,286047002.6,N
1585221735.2,286047002.4,N
1585221755.0,286047001.8,N
1585221755.9,286047001.8,N
1585221775.8,286047001.9,N
1585221795.6,286047003.9,N
1585221815.4,286047004.3,N
1585221835.3,286047004.5,N
1585221855.1,286047005.8,Y
1585221875.9,286047004.8,P
1585221895.7,286047004.6,N
1585221915.5,286047003.2,N
1585221935.4,286047002.9,N
1585221955.2,286047001.3,N
1585221975.1,286047002.2,N
1585221976.0,286047002.2,N
1585221995.8,286047004.3,Y
1585222015.7,286047000.2,P
1585222035.5,286047000.6,N
1585222055.3,286047000.2,N
1585222075.2,286047001.0,N
1585222095.9,286047000.3,N
1585222115.7,286047000.1,N
1585222135.6,286047002.4,N
1585222155.4,286047004.3,Y
1585222175.3,286047001.5,P
1585222195.1,286046999.9,N
1585222196.0,286046999.9,N
1585222215.8,286046998.2,N
1585222235.7,286047000.5,N
1585222255.5,286046999.9,N
1585222275.4,286046999.1,N
1585222295.2,286046998.4,N
1585222315.0,286046999.7,N
1585222315.9,286046999.7,N
1585222335.8,286047000.0,N
1585222355.6,286046998.4,N
1585222375.4,286046998.1,N
1585222395.3,286046999.8,N
1585222415.1,286046999.7,N
1585222435.9,286047000.3,N
1585222455.7,286046999.3,N
1585222475.5,286046999.5,N
1585222495.4,286046999.2,N
1585222515.2,286046998.6,N
1585222535.1,286047000.0,N
1585222536.0,286047000.0,N
1585222555.8,286047000.4,N
1585222575.6,286047003.7,Y
1585222595.5,286047006.0,P
1585222615.3,286047007.2,N
1585222635.1,286047003.7,N
1585222655.9,286047004.0,N
1585222675.7,286047005.9,N
1585222695.6,286047005.5,N
1585222715.4,286047004.8,N
1585222735.2,286047003.2,N
1585222755.1,286047001.6,N
1585222756.0,286047001.6,N
1585222775.8,286047001.5,N
1585222795.7,286047001.4,N
1585222815.5,286047001.3,N
1585222835.3,286047003.5,N
1585222855.2,286047002.5,N
1585222875.0,286047003.9,N
1585222875.9,286047003.9,N
1585222895.8,286047003.0,N
1585222915.6,286047006.0,Y
1585222935.4,286047000.9,P
1585222955.3,286046999.3,N
1585222975.1,286047000.6,N
1585222995.9,286047000.2,N
1585223015.7,286047002.8,N
1585223035.5,286046998.6,N
1585223055.4,286047000.4,N
1585223075.2,286046998.3,N
1585223095.0,286047002.8,N
1585223096.0,286047002.8,N
1585223115.8,286047002.4,N
1585223135.6,286046999.7,N
1585223155.5,286047001.3,N
1585223175.3,286047000.5,N
1585223195.1,286047001.6,N
1585223215.9,286047000.0,N
1585223235.7,286047001.0,N
1585223255.6,286047000.4,N
1585223275.4,286046998.2,N
1585223295.2,286047000.6,N
1585223315.1,286046998.7,N
1585223316.0,286046998.7,N
1585223335.8,286046999.7,N
1585223355.7,286047002.8,N
1585223375.5,286047000.9,N
1585223395.3,286047002.4,N
1585223415.2,286046999.7,N
1585223435.9,286046998.5,N
1585223455.7,286046999.9,N
1585223475.6,286047004.0,N
1585223495.4,286047001.8,N
1585223515.3,286047002.1,N
1585223535.1,286047000.2,N
1585223555.8,286047001.8,N
1585223575.7,286047001.9,N
1585223595.5,286047003.7,N
1585223615.4,286047003.3,N
1585223635.2,286047002.7,N
1585223655.0,286047002.0,N
1585223655.9,286047002.0,N
1585223675.8,286046999.7,N
1585223695.6,286047000.3,N
1585223715.4,286047000.2,N
1585223735.3,286046998.1,N
1585223755.1,286046998.6,N
1585223775.9,286046998.7,N
1585223795.7,286046999.8,N
1585223815.5,286047002.4,N
1585223835.4,286047002.4,N
1585223855.2,286047000.3,N
1585223875.1,286046998.5,N
1585223876.0,286046998.5,N
1585223895.8,286047000.9,N
1585223915.6,286047001.2,N
1585223935.5,286047000.7,N
1585223955.3,286047002.0,N
1585223975.2,286047001.8,N
1585223995.9,286047001.4,N
